星链-3206 (STARLINK-3206 )

导读 | 星芒AI

STARLINK-3206 是 SpaceX 星链计划中的一颗低轨通信卫星,属于第 10 批部署的星链卫星群。该卫星于 2023 年发射,旨在为全球用户提供高速互联网服务。它运行在约 550 公里的轨道高度,采用先进的推进系统和激光通信技术,以提升网络连接的稳定性和效率。作为星链星座的重要组成部分,STARLINK-3206 有助于扩大卫星互联网的覆盖范围,特别是在偏远和网络基础设施薄弱的地区。

基本信息
目录编号:
49764
目录名称:
STARLINK-3206
国际标识:
2021-115AS
轨道中心:
EARTH
卫星名称:
星链-3206
卫星全名:
星链-3206 (STARLINK-3206 )
卫星状态:
已陨落 最后检测时间 2024-08-10
发射日期:
2021-12-02 UTC
国别 :
美国 (US)
星等 :
--
轨道信息
数据来源 国际轨道数据
星历时间: 2024-08-10T14:36:53+0800
轨道信息已过期454天
半长轴: 6561.089km
偏心率: 0.0005378
轨道倾角: 53.200°
近地点辐角 279.541°
升交点赤经 192.196°
平近点角 117.137°
近地点: 179.425km
远地点: 186.483km
周期: 88.150分钟
每日圈数: 16.335745
详细信息
固有亮度:
5
最大亮度:
2.5
卫星平台:
Starlink v1.5
覆盖范围:
全球
运营商:
太空探索技术公司
运营商所在国:
美国
制造商(研发单位):
太空探索技术公司
制造商所在国:
美国
使用方式:
暂无
卫星简介
星链(Starlink)计划是由太空探索技术公司(SpaceX)提出的一个巨型低轨卫星互联网星座项目,计划在2019年至2024年间在太空搭建由约1.2万颗卫星组成的“星链”网络,其中1584颗将部署在地球上空550千米处的近地轨道,并从2020年开始工作。该卫星仍在工作。